User: anonymous   Login
Location: Unspecified
(0.0000°N, 0.0000°E)
Time: 19:46:25
(UTC+00:00)
Language:

PRISMA (TANGO) - Orbit

View from above orbital plane
View from above orbital plane
View from above satellite
View from above satellite

Ground track
Ground track

The orbit data is extracted from the following two-line orbital elements,

1 36827U 10028F   17269.21690707  .00000068  00000-0  33529-4 0  9994
2 36827  98.4762  76.7472 0043860  96.2099 264.4089 14.42291577374945
Epoch (UTC): 26 September 2017 05:12:20
Eccentricity: 0.0043860
inclination: 98.4762°
perigee height: 719 km
apogee height: 782 km
right ascension of ascending node: 76.7472°
argument of perigee: 96.2099°
revolutions per day: 14.42291577
mean anomaly at epoch: 264.4089°
orbit number at epoch: 37494

The dashed part of the orbit path shows where the satellite is in the earth's shadow,  

DLR